Weather in Pozega

Croatia     45°20′04″N   17°40′39″E
temp.,
°C
wind,
m/s
gust,
m/s
humid.,
%
clouds,
%
prec.,
mm/h
press.,
hPa
HPBL,
m
28 february, sun
sun2801:00+4n397615 0.0 1035370
04:00+3n128117 0.0 103554
07:00+4n117952 0.0 103588
10:00+7ene127087 0.0 1036546
13:00+10ese125568 0.0 10351198
16:00+9e125390 0.0 10331260
19:00+6sw016746 0.0 103322
22:00+5n11730 0.0 103422
1 march, mon
mon101:00+4nw11760 0.0 103322
04:00+3wnw11810 0.0 103222
07:00+2wsw22850 0.0 103343
10:00+7w12590 0.0 1033603
13:00+10ne22520 0.0 10331063
16:00+10ne34520 0.0 10321067
19:00+7ne25720 0.0 1035132
22:00+5ne22770 0.0 103547
2 march, tue
tue201:00+4ne12810 0.0 103622
04:00+3ne12850 0.0 103622
07:00+3ne11870 0.0 103622
10:00+8e12660 0.0 1036526
13:00+11e12500 0.0 1035838
16:00+11e12470 0.0 1033825
19:00+7ese11650 0.0 103422
22:00+6e11690 0.0 103422
3 march, wed
wed301:00+4ene01720 0.0 103422
04:00+3w00770 0.0 103322
07:00+3ssw00800 0.0 103322
10:00+9se11580 0.0 1032322
13:00+13ese12440 0.0 1030748
16:00+12se22460 0.0 1028747
19:00+8ene11600 0.0 102822
22:00+7nne00646 0.0 102722
4 march, thu
thu401:00+6wsw11703 0.0 102622
04:00+4wsw117624 0.0 102422
07:00+4wsw128221 0.0 102322
10:00+10wsw235938 0.0 1021329
13:00+14wsw343720 0.0 1019730
16:00+14wsw253788 0.0 1017895
19:00+9sw125079 0.0 101724
22:00+7wsw246762 0.0 101790